This is the latest recevied weather packets stored in our database for station/object WP3OF-1. If no packets are shown the sender has not sent any weather packets the latest 1 day(s).
| Time | Temp. | Humidity | Pressure | Rain* | Wind** | Luminosity | Snow |
|---|---|---|---|---|---|---|---|
| 1778017588 | 27.22° C | 79% | 1017.1 hPa | 0 mm | 4.47 m/s, 107° | - | - |
| 1778017285 | 27.22° C | 79% | 1017.2 hPa | 0 mm | 4.02 m/s, 131° | - | - |
| 1778016983 | 27.78° C | 78% | 1017 hPa | 0 mm | 3.58 m/s, 114° | - | - |
| 1778016679 | 27.78° C | 78% | 1016.9 hPa | 0 mm | 3.58 m/s, 101° | - | - |
| 1778016375 | 27.78° C | 77% | 1017.1 hPa | 0 mm | 4.02 m/s, 121° | - | - |
| 1778016073 | 27.78° C | 77% | 1016.8 hPa | 0 mm | 4.47 m/s, 119° | - | - |
| 1778015770 | 27.78° C | 75% | 1017.1 hPa | 0 mm | 4.92 m/s, 112° | - | - |
| 1778015467 | 27.78° C | 75% | 1017.2 hPa | 0 mm | 5.36 m/s, 130° | - | - |
| 1778015164 | 27.78° C | 73% | 1017 hPa | 0 mm | 6.26 m/s, 122° | - | - |
| 1778014861 | 27.78° C | 76% | 1016.9 hPa | 0 mm | 4.47 m/s, 113° | - | - |
| 1778014558 | 27.78° C | 77% | 1016.9 hPa | 0 mm | 4.02 m/s, 131° | - | - |
| 1778014256 | 27.78° C | 77% | 1017 hPa | 0 mm | 4.47 m/s, 120° | - | - |
| 1778013953 | 27.78° C | 77% | 1017 hPa | 0 mm | 5.36 m/s, 128° | - | - |
| 1778013650 | 28.33° C | 77% | 1017 hPa | 0 mm | 4.92 m/s, 159° | - | - |
| 1778013346 | 27.78° C | 78% | 1017.2 hPa | 0 mm | 4.92 m/s, 85° | - | - |
| 1778013044 | 27.78° C | 78% | 1017.2 hPa | 0 mm | 4.92 m/s, 111° | - | - |
| 1778012739 | 28.33° C | 77% | 1017.2 hPa | 0 mm | 4.02 m/s, 127° | - | - |
| 1778012435 | 28.33° C | 76% | 1017.2 hPa | 0 mm | 4.47 m/s, 156° | - | - |
| 1778012133 | 28.33° C | 76% | 1017.1 hPa | 0 mm | 2.24 m/s, 137° | - | - |
| 1778011831 | 28.89° C | 75% | 1017.2 hPa | 0 mm | 3.58 m/s, 112° | - | - |
| 1778011528 | 28.89° C | 74% | 1017.1 hPa | 0 mm | 3.58 m/s, 83° | - | - |
| 1778011225 | 28.33° C | 75% | 1017.2 hPa | 0 mm | 2.68 m/s, 80° | - | - |
| 1778010921 | 28.33° C | 75% | 1017.3 hPa | 0 mm | 3.58 m/s, 148° | - | - |
| 1778010618 | 28.89° C | 75% | 1017 hPa | 0 mm | 4.02 m/s, 122° | - | - |
| 1778010315 | 28.89° C | 74% | 1017.3 hPa | 0 mm | 2.68 m/s, 107° | - | - |
* Rain latest hour (hover to see other rain measurements)
** Current wind speed in m/s (hover to see current wind gust speed)